Flag for Brazil Weather past 2 weeks in Cuiabá, Mato Grosso, Brazil

Now
79 °F

Clear.


Feels Like: 81 °F
Forecast: 71 / 100 °F
Wind: 7 mph from Southwest

Location: Cuiaba Aeroporto

Current Time: Sep 5, 2015 at 2:44:28 AM

Latest Report: Sep 5, 2015 at 2:00 AM


Visibility: 10 mi

Pressure: 29.95 "Hg

Humidity: 70%

Dew point: 68 °F

Location of CuiabáLocation

Historic Weather in Cuiabá — Graph

°F

Cuiabá temperature yesterday

Maximum temperature yesterday: 97 °F (at 1:00 PM)
Minimum temperature yesterday: 79 °F (at 4:00 AM)
Average temperature yesterday: 87 °F

Past Weeks' High & Low Weather Summary

 TemperatureHumidityPressure
High104 °F (Aug 26, 1:00 PM)94% (Aug 29, 6:00 AM)30.07 "Hg (Aug 29, 6:00 AM)
Low68 °F (Aug 29, 6:00 AM)9% (Sep 2, 2:00 PM)29.33 "Hg (Aug 31, 8:00 AM)
Average86 °F44%29.90 "Hg
* Reported Aug 21 1:00 AM — Sep 5 1:00 AM, Cuiabá, Weather by CustomWeather, © 2015

Note: Actual official high and low records may vary slightly from our data, if they occured in-between our weather recording intervals... More about our weather records

Advertising

Cuiabá weather history for previous 24 hours

 ConditionsComfort  
Time TempWeatherWind HumidityBarometerVisibility
1:00 AM
Sat, Sep 5
79 °FClear.6 mph70%29.95 "Hg10 mi
12:00 AM81 °FClear.6 mph62%29.95 "Hg10 mi
11:00 PM
Fri, Sep 4
82 °FClear.8 mph58%29.95 "Hg10 mi
10:00 PM84 °FClear.6 mph55%29.95 "Hg10 mi
9:00 PM84 °FClear.7 mph51%29.92 "Hg10 mi
8:00 PM84 °FClear.7 mph51%29.92 "Hg10 mi
7:00 PM90 °FClear.7 mph41%29.89 "Hg10 mi
6:00 PM91 °FClear.10 mph38%29.86 "Hg10 mi
5:00 PM93 °FSunny.13 mph36%29.86 "Hg10 mi
4:00 PM97 °FSunny.12 mph30%29.83 "Hg10 mi
3:00 PM97 °FSunny.9 mph27%29.86 "Hg10 mi
2:00 PM97 °FSunny.6 mph28%29.89 "Hg10 mi
1:00 PM97 °FSunny.8 mph30%29.92 "Hg10 mi
12:00 PM95 °FSunny.5 mph34%29.95 "Hg10 mi
11:00 AM91 °FSunny.No wind38%29.95 "Hg10 mi
10:00 AM90 °FSunny.6 mph43%29.98 "Hg10 mi
9:00 AM86 °FSunny.10 mph49%29.98 "Hg10 mi
8:00 AM82 °FSunny.10 mph55%29.98 "Hg10 mi
7:00 AM79 °FSunny.6 mph61%29.95 "Hg10 mi
6:00 AM79 °FSunny.6 mph54%29.92 "Hg10 mi
5:00 AM79 °FClear.6 mph54%29.92 "Hg10 mi
4:00 AM79 °FClear.6 mph42%29.89 "Hg10 mi
3:00 AM81 °FClear.6 mph48%29.89 "Hg10 mi
2:00 AM82 °FClear.5 mph42%29.89 "Hg10 mi
Weather by CustomWeather, © 2015

See weather overviewHow to use our weather pages